Location: Bu�n Treun
(12.1333°N, 108.3167°E)
Time: 11:59:32
(UTC+00:00)

DMSP B5D2-2 - Pass Details

Date: 13 July 2020
Orbit: 789 x 807 km, 98.3° (Epoch: 07 August)

Event Time Altitude Azimuth Distance (km) Brightness Sun altitude
Rises 12:33:33 0° 8° (N) 3,274 7.5 -18.0°
Reaches altitude 10° 12:35:52 10° 7° (N) 2,345 6.8 -18.5°
Maximum altitude 12:41:02 73° 283° (WNW) 822 4.2 -19.6°
Drops below altitude 10° 12:46:12 10° 198° (SSW) 2,348 6.4 -20.7°
Sets 12:48:31 0° 197° (SSW) 3,279 7.1 -21.2°
